Location: Charlottesville
(38.0290°N, 78.4770°W)
Time: 15:13:35
(UTC-04:00)

Envisat - Pass Details

Date: 11 October 2017
Orbit: 764 x 766 km, 98.2° (Epoch: 22 October)

Event Time Altitude Azimuth Distance (km) Brightness Sun altitude
Exits shadow 20:30:43 35° 43° (NE) 1,212 3.7 -22.3°
Drops below altitude 10° 20:34:25 10° 3° (N) 2,308 5.5 -23.0°
Sets 20:36:50 0° 356° (N) 3,238 6.4 -23.5°
